Latrobe, PA

2:55 AM EDT on August 25, 2019 (GMT -0400)
Arnold Palmer Regional

Weather History for KLBE - June, 2019

Change the Weather History Date:

Thursday, June 6, 2019

  Actual Average Record
Temperature  
Mean Temperature 70 °F -  
Max Temperature 78 °F 74 °F 89 °F (1999)
Min Temperature 62 °F 54 °F 44 °F (2012)
Cooling Degree Days 5    
Growing Degree Days 20 (Base 50)    
Moisture  
Dew Point 66 °F    
Average Humidity 92    
Maximum Humidity 100    
Minimum Humidity 61    
Precipitation  
Precipitation 0.00 in - - ()
Sea Level Pressure  
Sea Level Pressure 29.83 in    
Wind  
Wind Speed 6 mph (WSW)    
Max Wind Speed 12 mph    
Max Gust Speed -    
Visibility 9 miles    
Events Rain    
Averages and records for this station are not official NWS values.
T = Trace of Precipitation, MM = Missing Value Source: NWS Daily Summary

Daily Weather History Graph

Daily Weather History Graph

Search for Another Location

Airport or City:

Astronomy

Jun. 06, 2019 Rise Set
Actual Time 5:48 AM EDT 8:44 PM EDT
Civil Twilight 5:15 AM EDT 9:17 PM EDT
Nautical Twilight 4:34 AM EDT 9:58 PM EDT
Astronomical Twilight 3:46 AM EDT 10:46 PM EDT
Moon 8:55 AM EDT (6/6) No Moon Set
Length of Visible Light 16h 01m
Length of Day
14h 56m
Waxing Crescent, 13% of the Moon is Illuminated
Jun 6
Waxing Crescent
Jun 10
First Quarter
Jun 17
Full
Jun 25
Last Quarter
Jul 2
New

Hourly Weather History & Observations

Time (EDT) Temp. Dew Point Humidity Pressure Visibility Wind Dir Wind Speed Gust Speed Precip Events Conditions
12:15 AM 68.0 °F 68.0 °F 100% 29.79 in 10.0 mi SSW 10.4 mph - N/A   Mostly Cloudy
12:35 AM 68.0 °F 68.0 °F 100% 29.79 in 10.0 mi SSW 9.2 mph - N/A   Mostly Cloudy
12:55 AM 68.0 °F 68.0 °F 100% 29.78 in 10.0 mi SSW 10.4 mph - N/A   Mostly Cloudy
1:15 AM 68.0 °F 68.0 °F 100% 29.78 in 10.0 mi SSW 9.2 mph - N/A   Mostly Cloudy
1:35 AM 68.0 °F 68.0 °F 100% 29.78 in 7.0 mi SW 8.1 mph - N/A   Overcast
1:55 AM 68.0 °F 68.0 °F 100% 29.77 in 5.0 mi SSW 4.6 mph - N/A   Mostly Cloudy
2:15 AM 68.0 °F 68.0 °F 100% 29.77 in 4.0 mi SW 5.8 mph - N/A Rain Light Rain
2:35 AM 68.0 °F 68.0 °F 100% 29.76 in 7.0 mi SSW 5.8 mph - N/A   Mostly Cloudy
2:55 AM 66.2 °F 66.2 °F 100% 29.76 in 10.0 mi SSW 4.6 mph - N/A   Overcast
3:15 AM 66.2 °F 66.2 °F 100% 29.76 in 10.0 mi South 4.6 mph - N/A   Overcast
3:35 AM 66.2 °F 66.2 °F 100% 29.76 in 10.0 mi Calm Calm - N/A   Overcast
3:55 AM 66.2 °F 66.2 °F 100% 29.76 in 10.0 mi Calm Calm - N/A   Overcast
4:15 AM 66.2 °F 66.2 °F 100% 29.76 in 2.5 mi Variable 3.5 mph - N/A Rain Heavy Rain
4:35 AM 66.2 °F 66.2 °F 100% 29.75 in 7.0 mi Calm Calm - N/A Rain Light Rain
4:55 AM 66.2 °F 66.2 °F 100% 29.76 in 10.0 mi SSE 3.5 mph - N/A   Overcast
5:15 AM 66.2 °F 66.2 °F 100% 29.77 in 9.0 mi SW 3.5 mph - N/A   Overcast
5:35 AM - - N/A% 29.78 in 8.0 mi SW 3.5 mph - N/A   Overcast
5:55 AM 68.0 °F 68.0 °F 100% 29.79 in 9.0 mi Calm Calm - N/A   Overcast
6:53 AM 68.0 °F 68.0 °F 100% 29.81 in 5.0 mi WNW 6.9 mph - N/A   Overcast
7:53 AM 68.0 °F 68.0 °F 100% 29.83 in 10.0 mi WNW 8.1 mph - N/A   Overcast
8:53 AM 68.0 °F 68.0 °F 100% 29.85 in 10.0 mi West 10.4 mph - N/A   Overcast
9:53 AM 68.0 °F 68.0 °F 100% 29.86 in 10.0 mi WNW 8.1 mph - N/A   Overcast
10:53 AM 68.0 °F 68.0 °F 100% 29.88 in 10.0 mi West 8.1 mph - N/A   Overcast
11:53 AM 71.6 °F 66.2 °F 83% 29.89 in 10.0 mi West 8.1 mph - N/A   Mostly Cloudy
12:45 PM 73.4 °F 66.2 °F 78% 29.89 in 10.0 mi West 10.4 mph - N/A   Mostly Cloudy
1:50 PM 75.2 °F 66.2 °F 73% 29.89 in 10.0 mi West 11.5 mph - N/A   Mostly Cloudy
2:45 PM 77.0 °F 64.4 °F 65% 29.88 in 10.0 mi West 5.8 mph - N/A   Mostly Cloudy
3:50 PM 77.0 °F 64.4 °F 65% 29.88 in 10.0 mi West 9.2 mph - N/A   Mostly Cloudy
4:50 PM 78.8 °F 64.4 °F 61% 29.87 in 10.0 mi West 9.2 mph - N/A   Mostly Cloudy
5:50 PM 75.2 °F 62.6 °F 65% 29.87 in 10.0 mi WNW 6.9 mph - N/A   Mostly Cloudy
6:50 PM 77.0 °F 62.6 °F 61% 29.87 in 10.0 mi NW 9.2 mph - N/A   Mostly Cloudy
7:50 PM 73.4 °F 62.6 °F 69% 29.89 in 10.0 mi NW 6.9 mph - N/A   Scattered Clouds
8:50 PM 69.8 °F 64.4 °F 83% 29.90 in 10.0 mi Calm Calm - N/A   Clear
9:50 PM 68.0 °F 62.6 °F 83% 29.91 in 10.0 mi Calm Calm - N/A   Clear
10:15 PM 66.2 °F 64.4 °F 94% 29.92 in 10.0 mi Calm Calm - N/A   Clear
10:35 PM 64.4 °F 64.4 °F 100% 29.93 in 10.0 mi Calm Calm - N/A   Clear
10:55 PM 64.4 °F 64.4 °F 100% 29.93 in 10.0 mi Calm Calm - N/A   Clear
11:15 PM 64.4 °F 64.4 °F 100% 29.93 in 10.0 mi Calm Calm - N/A   Clear
11:35 PM 62.6 °F 62.6 °F 100% 29.92 in 10.0 mi Calm Calm - N/A   Clear
11:55 PM 62.6 °F 62.6 °F 100% 29.92 in 10.0 mi Calm Calm - N/A   Clear